Regional Weather Roundup
Issued by NWS

Home | Current Version | Previous Version | Text Only | Print | Product List | Glossary Off
Versions: 1 2 3 4 5 6 7 8 9 10 11 12 13 14 15 16 17 18 19 20 21 22 23 24 25 26 27 28 29 30 31 32 33 34 35 36 37 38 39 40 41 42 43 44 45 46 47 48 49 50

000
ASUS44 KMEG 210310
RWRTN
TENNESSEE HOURLY STATE WEATHER ROUNDUP
NATIONAL WEATHER SERVICE MEMPHIS TN
1000 PM CDT SAT SEP 20 2014

TNZ002-004-019-021-049-052-054-088>092-210400-
WEST TENNESSEE

CITY           SKY/WX    TMP DP  RH WIND       PRES   REMARKS
MEMPHIS INTL   PTCLDY    75  67  76 S7        30.01R
NWS MEMPHIS      N/A     75 N/A N/A MISG        N/A
JACKSON        CLEAR     71  67  87 S3        30.02R
DYERSBURG      CLEAR     72  61  68 S3        30.01R
UNION CITY     CLEAR     70  66  88 CALM      29.99S
PARIS          CLEAR     66  63  88 CALM      30.02S
HUNTINGDON     CLEAR     69  66  90 CALM      30.02R
LEXINGTON      CLEAR     70  68  94 CALM      30.02R
SAVANNAH       CLEAR     68  68 100 CALM      30.04R
$$

TNZ008-025-027-028-033-062-065-066-210400-
NORTH MIDDLE TENNESSEE

CITY           SKY/WX    TMP DP  RH WIND       PRES   REMARKS
NASHVILLE      PTCLDY    72  66  81 S3        30.03S
DICKSON        CLEAR     70  64  83 S3        30.03S
PORTLAND       CLEAR     66  64  94 S3        30.01F
CLARKSVILLE    CLEAR     73  67  81 SW5       30.01R
LEBANON        CLEAR     69  64  84 CALM      30.02R
SMYRNA         CLEAR     69  65  87 CALM      30.04S
COOKEVILLE     PTCLDY    64  64 100 CALM      30.06R
LIVINGSTON     CLEAR     68  63  84 CALM      30.07S
GALLATIN       CLEAR     69  67  93 CALM      30.03S
CROSSVILLE     CLEAR     65  61  87 CALM      30.10S
$$

TNZ061-075-076-078-094-096-097-210400-
SOUTH MIDDLE TENNESSEE

CITY           SKY/WX    TMP DP  RH WIND       PRES   REMARKS
LEWISBURG      CLOUDY    72  67  84 CALM      30.04S
FAYETTEVILLE   PTCLDY    68  61  77 CALM      30.07R
WINCHESTER     CLEAR     66  63  88 CALM      30.08R
MCMINNVILLE    CLEAR     66  66 100 CALM      30.07S
COLUMBIA       CLEAR     72  72 100 S5        30.03S
SHELBYVILLE    PTCLDY    70  66  88 SE3       30.06S
$$

TNZ017-018-042-046-047-210400-
NORTHEAST TENNESSEE

CITY           SKY/WX    TMP DP  RH WIND       PRES   REMARKS
TRI CITIES     CLEAR     60  55  83 CALM      30.09R
ELIZABETHTON   CLEAR     61  55  82 E5        30.10R
$$

TNZ012-013-036-069-073-074-210400-
CENTRAL EAST TENNESSEE

CITY           SKY/WX    TMP DP  RH WIND       PRES   REMARKS
KNOXVILLE      CLEAR     69  60  73 S3        30.06R
OAK RIDGE      MOCLDY    67  64  90 CALM      30.08R
GATLINBURG     CLEAR     64  61  88 CALM      30.06R
MORRISTOWN     CLEAR     64  61  88 CALM      30.08R
$$

TNZ083-085-099-210400-
SOUTHEAST TENNESSEE

CITY           SKY/WX    TMP DP  RH WIND       PRES   REMARKS
CHATTANOOGA    PTCLDY    70  64  81 CALM      30.06R
$$

SKY/WX REPORTED AS FAIR MEANS FEW OR NO CLOUDS BELOW
12 THOUSAND FEET.



USA.gov is the U.S. government's official web portal to all federal, state and local government web resources and services.